Location: Climax
(33.2048°N, 96.4497°W)
Time: 13:17:07
(UTC+00:00)

SL-4 R/B - Pass Details

Date: 12 July 2022
Orbit: 425 x 653 km, 51.6° (Epoch: 12 August)

Event Time Altitude Azimuth Distance (km) Brightness Sun altitude
Rises 10:21:47 0° 312° (NW) 2,580 5.3 -12.2°
Reaches altitude 10° 10:23:54 10° 310° (NW) 1,732 4.4 -11.9°
Maximum altitude 10:27:49 74° 226° (SW) 563 1.9 -11.2°
Drops below altitude 10° 10:32:04 10° 141° (SE) 1,867 4.8 -10.5°
Sets 10:34:25 0° 139° (SE) 2,803 5.7 -10.1°
